Flag for Poland Weather past 2 weeks in Warsaw, Poland

Now
61 °F

Sunny.


Feels Like: 61 °F
Forecast: 50 / 72 °F
Wind: 6 mph from Northwest

Location: Warsaw Okecie Airport

Current Time: Jul 31, 2015 at 9:24:34 PM

Latest Report: Jul 31, 2015 at 8:30 PM


Visibility: 10 mi

Pressure: 30.04 "Hg

Humidity: 63%

Dew point: 48 °F

Location of WarsawLocation

Historic Weather in Warsaw — Graph

°F

Warsaw temperature yesterday

Maximum temperature yesterday: 72 °F (at 3:30 PM)
Minimum temperature yesterday: 54 °F (at 3:30 AM)
Average temperature yesterday: 62 °F

Past Weeks' High & Low Weather Summary

 TemperatureHumidityPressure
High97 °F (Jul 18, 3:00 PM)100% (Jul 19, 8:30 PM)30.04 "Hg (Jul 19, 8:30 PM)
Low50 °F (Jul 27, 4:00 AM)26% (Jul 18, 4:30 PM)29.62 "Hg (Jul 19, 7:30 PM)
Average69 °F64%29.87 "Hg
* Reported Jul 16 8:00 PM — Jul 31 8:00 PM, Warsaw, Weather by CustomWeather, © 2015

Note: Actual official high and low records may vary slightly from our data, if they occured in-between our weather recording intervals... More about our weather records

Advertising

Warsaw weather history for previous 24 hours

 ConditionsComfort  
Time TempWeatherWind HumidityBarometerVisibility
8:00 PM
Fri, Jul 31
63 °FSunny.10 mph56%30.04 "Hg10 mi
7:30 PM64 °FPassing clouds.9 mph52%30.04 "HgN/A
7:00 PM64 °FSunny.10 mph52%30.04 "Hg10 mi
6:30 PM66 °FPassing clouds.13 mph49%30.04 "HgN/A
6:00 PM66 °FSunny.12 mph49%30.04 "Hg10 mi
5:30 PM66 °FPassing clouds.10 mph49%30.01 "HgN/A
5:00 PM66 °FPassing clouds.10 mph52%30.04 "HgN/A
4:30 PM64 °FPassing clouds.13 mph56%30.01 "HgN/A
4:00 PM64 °FPassing clouds.10 mph56%30.01 "HgN/A
3:30 PM64 °FPassing clouds.10 mph56%30.01 "HgN/A
3:00 PM64 °FPassing clouds.10 mph52%30.01 "HgN/A
2:30 PM64 °FSunny.14 mph52%30.01 "Hg10 mi
2:00 PM64 °FPassing clouds.12 mph49%30.01 "HgN/A
1:30 PM66 °FPassing clouds.13 mph46%30.01 "HgN/A
1:00 PM68 °FPassing clouds.12 mph40%29.98 "HgN/A
12:30 PM66 °FPassing clouds.14 mph43%29.98 "HgN/A
12:00 PM68 °FPassing clouds.14 mph40%29.98 "HgN/A
11:30 AM68 °FPassing clouds.12 mph43%29.98 "HgN/A
11:00 AM68 °FScattered clouds.13 mph43%29.98 "HgN/A
10:30 AM66 °FScattered clouds.14 mph49%29.98 "HgN/A
10:00 AM64 °FPassing clouds.9 mph56%29.98 "HgN/A
9:30 AM64 °FPassing clouds.9 mph56%29.98 "HgN/A
9:00 AM63 °FPassing clouds.8 mph59%29.98 "HgN/A
8:30 AM61 °FPassing clouds.9 mph59%29.98 "HgN/A
8:00 AM61 °FPassing clouds.8 mph59%29.98 "HgN/A
7:30 AM59 °FPassing clouds.5 mph63%29.98 "HgN/A
7:00 AM57 °FPassing clouds.3 mph63%29.98 "HgN/A
6:30 AM54 °FSunny.5 mph72%29.98 "Hg10 mi
6:00 AM50 °FSunny.6 mph82%29.95 "Hg10 mi
5:30 AM50 °FClear.2 mph76%29.95 "Hg10 mi
5:00 AM50 °FPassing clouds.3 mph76%29.95 "HgN/A
4:30 AM52 °FClear.5 mph72%29.92 "Hg10 mi
4:00 AM52 °FPassing clouds.5 mph72%29.92 "HgN/A
3:30 AM54 °FPassing clouds.5 mph72%29.92 "HgN/A
3:00 AM52 °FPassing clouds.5 mph72%29.92 "HgN/A
2:30 AM54 °FClear.6 mph67%29.92 "Hg10 mi
2:00 AM54 °FPassing clouds.6 mph67%29.92 "HgN/A
1:30 AM55 °FPassing clouds.3 mph63%29.92 "HgN/A
1:00 AM55 °FPassing clouds.3 mph63%29.92 "HgN/A
12:00 AM57 °FPassing clouds.5 mph63%29.92 "HgN/A
11:30 PM
Thu, Jul 30
55 °FClear.6 mph67%29.92 "Hg10 mi
11:00 PM55 °FClear.7 mph67%29.92 "Hg10 mi
10:30 PM57 °FClear.7 mph63%29.89 "Hg10 mi
10:00 PM59 °FClear.3 mph59%29.89 "Hg10 mi
9:30 PM61 °FPassing clouds.3 mph55%29.89 "HgN/A
9:00 PM61 °FPassing clouds.5 mph55%29.89 "HgN/A
Weather by CustomWeather, © 2015

See weather overviewHow to use our weather pages